Location: Unspecified
(0.0000°N, 0.0000°E)
Time: 17:54:36
(UTC+00:00)

STARLINK 1067 - Pass Details

Date: 19 January 2020
Orbit: 548 x 551 km, 53.0° (Epoch: 17 January)

Event Time Altitude Azimuth Distance (km) Brightness Sun altitude
Rises 05:31:58 0° 203° (SSW) 2,714 7.1 -9.0°
Reaches altitude 10° 05:34:17 10° 196° (SSW) 1,818 6.3 -8.5°
Maximum altitude 05:38:12 42° 124° (SE) 787 5.1 -7.6°
Drops below altitude 10° 05:42:06 10° 53° (NE) 1,810 6.7 -6.7°
Sets 05:44:25 0° 46° (NE) 2,700 7.5 -6.1°
